Weather History for Santa Maria, CA

Change the Weather History Date:

Monday, September 16, 2013

  Actual Average Record
Temperature  
Mean Temperature 63 °F 63 °F  
Max Temperature 73 °F 74 °F 99 °F (1939)
Min Temperature 52 °F 53 °F 40 °F (1970)
Degree Days  
Heating Degree Days 2 3  
Month to date heating degree days 4 38  
Since 1 July heating degree days 54 174  
Cooling Degree Days 0 1  
Month to date cooling degree days 32 16  
Year to date cooling degree days 157 71  
Growing Degree Days 12 (Base 50)    
Moisture  
Dew Point 54 °F    
Average Humidity 75    
Maximum Humidity 93    
Minimum Humidity 57    
Precipitation  
Precipitation 0.00 in 0.00 in 0.17 in (1989)
Month to date precipitation 0.00 0.05  
Year to date precipitation 2.50 9.81  
Since 1 July precipitation 0.01 0.10  
Sea Level Pressure  
Sea Level Pressure 29.85 in    
Wind  
Wind Speed 6 mph (SW)    
Max Wind Speed 14 mph    
Max Gust Speed 20 mph    
Visibility 6 miles    
Events Fog    
T = Trace of Precipitation, MM = Missing Value Source: NWS Daily Summary

Daily Weather History Graph

Daily Weather History Graph

Search for Another Location

Airport:

Trip Planner

Search our weather history database for the weather conditions in past years. The results will help you decide how hot, cold, wet, or windy it might be!

Date:

Astronomy

Sep. 16, 2013 Rise Set
Actual Time 6:45 AM PDT 7:06 PM PDT
Civil Twilight 6:20 AM PDT 7:31 PM PDT
Nautical Twilight 5:50 AM PDT 8:01 PM PDT
Astronomical Twilight 5:20 AM PDT 8:31 PM PDT
Moon 5:14 PM PDT (9/16) 3:43 AM PDT (9/16)
Length of Visible Light 13h 11m
Length of Day
12h 21m
Waxing Gibbous, 91% of the Moon is Illuminated
Sep 16
Waxing Gibbous
Sep 19
Full
Sep 26
Last Quarter
Oct 4
New
Oct 11
First Quarter

Hourly Weather History & Observations

Time (PDT) Temp. Dew Point Humidity Pressure Visibility Wind Dir Wind Speed Gust Speed Precip Events Conditions
12:51 AM 57.0 °F 53.1 °F 87% 29.84 in 10.0 mi South 5.8 mph - N/A   Clear
1:51 AM 57.0 °F 54.0 °F 89% 29.83 in 9.0 mi South 5.8 mph - N/A   Clear
2:47 AM 55.4 °F 53.6 °F 94% 29.82 in 2.5 mi South 6.9 mph - N/A   Scattered Clouds
2:51 AM 55.0 °F 53.1 °F 93% 29.83 in 1.2 mi South 5.8 mph - N/A   Mostly Cloudy
3:06 AM 55.4 °F 53.6 °F 94% 29.82 in 0.8 mi South 4.6 mph - N/A   Mist
3:28 AM 55.4 °F 53.6 °F 94% 29.82 in 1.2 mi South 3.5 mph - N/A   Overcast
3:36 AM 55.4 °F 53.6 °F 94% 29.82 in 1.5 mi South 4.6 mph - N/A   Overcast
3:51 AM 55.0 °F 53.1 °F 93% 29.83 in 3.0 mi Calm Calm - N/A   Overcast
4:01 AM 55.4 °F 53.6 °F 94% 29.82 in 1.5 mi SW 3.5 mph - N/A   Overcast
4:04 AM 55.4 °F 53.6 °F 94% 29.82 in 0.8 mi Calm Calm - N/A   Overcast
4:43 AM 53.6 °F 51.8 °F 94% 29.83 in 0.2 mi Calm Calm - N/A Fog Fog
4:51 AM 53.1 °F 50.0 °F 89% 29.84 in 0.2 mi Calm Calm - N/A Fog Fog
5:40 AM 53.6 °F 51.8 °F 94% 29.84 in 0.5 mi Calm Calm - N/A Fog Fog
5:51 AM 53.1 °F 51.1 °F 93% 29.85 in 0.5 mi Calm Calm - N/A Fog Fog
6:51 AM 55.0 °F 53.1 °F 93% 29.86 in 0.8 mi SSE 4.6 mph - N/A   Mist
6:56 AM 55.4 °F 53.6 °F 94% 29.85 in 1.5 mi SSE 4.6 mph - N/A   Overcast
7:05 AM 53.6 °F 51.8 °F 94% 29.85 in 1.0 mi East 3.5 mph - N/A   Overcast
7:51 AM 55.0 °F 53.1 °F 93% 29.86 in 6.0 mi Calm Calm - N/A   Mostly Cloudy
7:58 AM 55.4 °F 53.6 °F 94% 29.86 in 9.0 mi South 5.8 mph - N/A   Scattered Clouds
8:51 AM 59.0 °F 55.0 °F 87% 29.88 in 10.0 mi Calm Calm - N/A   Scattered Clouds
9:51 AM 64.0 °F 55.0 °F 73% 29.88 in 10.0 mi WSW 8.1 mph - N/A   Scattered Clouds
10:51 AM 68.0 °F 55.9 °F 65% 29.88 in 10.0 mi Variable 3.5 mph - N/A   Clear
11:51 AM 72.0 °F 55.9 °F 57% 29.88 in 10.0 mi WNW 5.8 mph - N/A   Clear
12:51 PM 71.1 °F 55.0 °F 57% 29.88 in 10.0 mi NW 10.4 mph - N/A   Clear
1:51 PM 71.1 °F 55.9 °F 59% 29.86 in 10.0 mi NW 11.5 mph - N/A   Clear
2:51 PM 69.1 °F 55.9 °F 63% 29.84 in 10.0 mi NW 11.5 mph - N/A   Clear
3:51 PM 68.0 °F 55.9 °F 65% 29.83 in 10.0 mi NW 12.7 mph - N/A   Clear
4:51 PM 66.9 °F 55.9 °F 68% 29.84 in 10.0 mi NW 11.5 mph - N/A   Clear
5:44 PM 62.6 °F 57.2 °F 82% 29.83 in 10.0 mi NW 8.1 mph - N/A   Mostly Cloudy
5:51 PM 62.1 °F 55.9 °F 80% 29.84 in 10.0 mi NW 8.1 mph - N/A   Mostly Cloudy
6:36 PM 60.8 °F 55.4 °F 82% 29.83 in 8.0 mi North - - N/A   Overcast
6:51 PM 60.1 °F 55.9 °F 86% 29.84 in 8.0 mi WNW 6.9 mph - N/A   Overcast
7:23 PM 60.8 °F 55.4 °F 82% 29.83 in 9.0 mi West 3.5 mph - N/A   Overcast
7:51 PM 59.0 °F 55.0 °F 87% 29.84 in 10.0 mi NW 3.5 mph - N/A   Overcast
8:16 PM 59.0 °F 55.4 °F 88% 29.84 in 10.0 mi Variable 5.8 mph - N/A   Scattered Clouds
8:34 PM 59.0 °F 55.4 °F 88% 29.84 in 10.0 mi Calm Calm - N/A   Mostly Cloudy
8:51 PM 59.0 °F 55.0 °F 87% 29.86 in 10.0 mi ESE 4.6 mph - N/A   Mostly Cloudy
9:51 PM 60.1 °F 55.9 °F 86% 29.86 in 10.0 mi East 4.6 mph - N/A   Overcast
10:51 PM 57.9 °F 55.0 °F 90% 29.87 in 9.0 mi SE 4.6 mph - N/A   Overcast
11:51 PM 57.9 °F 55.0 °F 90% 29.86 in 9.0 mi SSE 4.6 mph - N/A   Overcast